Home > Weather > Suzhou > Past weeks

Flag for China Weather for the Past 2 Weeks in Suzhou, Jiangsu, China

Now
55 °F

Clear.


Feels Like: 53 °F
Forecast: 46 / 66 °F
Wind: 8 mph from Southeast

Location: Shanghai Hongqiao Airport

Current Time: Feb 9, 2016 at 8:32:55 PM

Latest Report: Feb 9, 2016 at 7:30 PM


Visibility: 10 mi

Pressure: 30.15 "Hg

Humidity: 38%

Dew point: 30 °F

Location of SuzhouLocation

Historic Weather in Suzhou — Graph

°F

Suzhou Temperature Yesterday

Maximum temperature yesterday: 59 °F (at 2:00 PM)
Minimum temperature yesterday: 30 °F (at 6:30 AM)
Average temperature yesterday: 46 °F

High & Low Weather Summary for the Past Weeks

 TemperatureHumidityPressure
High70 °F (Feb 9, 3:00 PM)100% (Jan 27, 5:00 PM)30.60 "Hg (Jan 27, 5:00 PM)
Low23 °F (Jan 26, 1:00 AM)21% (Feb 8, 4:00 PM)30.09 "Hg (Jan 28, 2:00 PM)
Average40 °F68%30.35 "Hg
* Reported Jan 25 6:00 PM — Feb 9 6:30 PM, Suzhou, Weather by CustomWeather, © 2016

Note: Actual official high and low records may vary slightly from our data, if they occured in-between our weather recording intervals... More about our weather records

Advertising

Suzhou Weather History for the Previous 24 Hours

 ConditionsComfort  
Time TempWeatherWind HumidityBarometerVisibility
6:30 PM
Tue, Feb 9
57 °FClear.6 mph39%30.15 "Hg10 mi
6:00 PM61 °FClear.6 mph31%30.15 "Hg10 mi
5:30 PM61 °FSunny.3 mph36%30.15 "Hg10 mi
5:00 PM64 °FSunny.6 mph32%30.15 "Hg10 mi
4:00 PM68 °FSunny.3 mph26%30.12 "Hg10 mi
3:30 PM68 °FSunny.3 mph26%30.12 "Hg10 mi
3:00 PM70 °FPassing clouds.6 mph25%30.12 "HgN/A
2:30 PM68 °FPassing clouds.6 mph26%30.12 "HgN/A
2:00 PM68 °FPassing clouds.6 mph26%30.15 "HgN/A
1:30 PM68 °FPassing clouds.6 mph26%30.15 "HgN/A
12:30 PM66 °FPassing clouds.3 mph28%30.18 "HgN/A
11:30 AM64 °FPassing clouds.3 mph28%30.21 "HgN/A
11:00 AM64 °FPassing clouds.3 mph30%30.21 "HgN/A
10:00 AM59 °FPassing clouds.3 mph39%30.21 "HgN/A
9:00 AM54 °FSunny.1 mph51%30.21 "Hg10 mi
8:30 AM50 °FSunny.No wind62%30.21 "Hg10 mi
8:00 AM45 °FSunny.1 mph76%30.18 "Hg10 mi
7:30 AM39 °FSunny.3 mph81%30.18 "Hg10 mi
7:00 AM37 °FSunny.3 mph81%30.18 "Hg10 mi
6:30 AM36 °FClear.3 mph87%30.15 "Hg10 mi
6:00 AM37 °FClear.No wind81%30.15 "Hg10 mi
5:30 AM39 °FClear.No wind75%30.15 "Hg10 mi
5:00 AM36 °FClear.No wind75%30.15 "Hg10 mi
4:30 AM37 °FClear.1 mph81%30.15 "Hg10 mi
4:00 AM37 °FClear.No wind87%30.15 "Hg10 mi
3:30 AM39 °FClear.No wind81%30.15 "Hg10 mi
3:00 AM39 °FClear.No wind75%30.15 "Hg10 mi
2:30 AM39 °FClear.No wind75%30.15 "Hg10 mi
2:00 AM41 °FClear.1 mph70%30.15 "Hg10 mi
1:30 AM41 °FClear.3 mph70%30.15 "Hg10 mi
1:00 AM41 °FClear.3 mph70%30.15 "Hg10 mi
12:30 AM41 °FClear.3 mph66%30.12 "Hg10 mi
12:00 AM43 °FClear.1 mph61%30.12 "Hg10 mi
11:30 PM
Mon, Feb 8
45 °FClear.3 mph57%30.12 "Hg10 mi
11:00 PM46 °FClear.1 mph53%30.12 "Hg10 mi
10:30 PM46 °FClear.3 mph50%30.12 "Hg10 mi
10:00 PM46 °FClear.1 mph50%30.12 "Hg10 mi
9:30 PM46 °FClear.3 mph46%30.12 "Hg10 mi
9:00 PM46 °FClear.6 mph46%30.12 "Hg10 mi
8:30 PM50 °FClear.10 mph40%30.12 "Hg10 mi
8:00 PM50 °FClear.1 mph40%30.12 "Hg10 mi
Weather by CustomWeather, © 2016

See weather overviewHow to use our weather pages